Back to catalog

SL-14 DEB

AlivePO
NORAD 45292·DEBRIS·🇷🇺 Russia

Launched Aug 15, 1991 from Plesetsk Cosmodrome

Loading…

Next Passes (next 24 hours)

TLE

FreshSource: Space-Track

Epoch: Sep 14, 2026, 08:57 UTC

1 45292U 91056AE  26257.37314843  .00003196  00000-0  54249-2 0  9993
2 45292  82.6254  47.7248 0087669 297.6552  61.5707 13.43432595319520

Track SL-14 DEB in real time with AllMySat

Download on the App Store